Time,TemperatureF,DewpointF,PressureIn,WindDirection,WindDirectionDegrees,WindSpeedMPH,WindSpeedGustMPH,Humidity,HourlyPrecipIn,Conditions,Clouds,dailyrainin,SoftwareType,DateUTC
2013-01-17 00:01:00,29.0,17.0,-100.00,NW,309,3.0,4.0,60,0.00,,,-99.99,,2013-01-17 07:01:00,
2013-01-17 00:11:00,29.0,17.0,-100.00,NW,309,4.0,5.0,59,0.00,,,-99.99,,2013-01-17 07:11:00,
2013-01-17 00:22:00,30.0,17.0,-100.00,NW,315,4.0,6.0,57,0.00,,,-99.99,,2013-01-17 07:22:00,
2013-01-17 00:32:00,28.0,16.0,-100.00,NW,309,5.0,6.0,60,0.00,,,-99.99,,2013-01-17 07:32:00,
2013-01-17 00:42:00,29.0,17.0,-100.00,NW,308,6.0,7.0,60,0.00,,,-99.99,,2013-01-17 07:42:00,
2013-01-17 00:52:00,28.0,16.0,-100.00,NW,304,4.0,6.0,60,0.00,,,-99.99,,2013-01-17 07:52:00,
2013-01-17 01:01:00,29.0,16.0,-100.00,WNW,298,4.0,6.0,59,0.00,,,-99.99,,2013-01-17 08:01:00,
2013-01-17 01:11:00,29.0,16.0,-100.00,WNW,299,5.0,6.0,60,0.00,,,-99.99,,2013-01-17 08:11:00,
2013-01-17 01:22:00,28.0,16.0,-100.00,NW,313,5.0,6.0,60,0.00,,,-99.99,,2013-01-17 08:22:00,
2013-01-17 01:32:00,28.0,16.0,-100.00,NW,313,4.0,6.0,59,0.00,,,-99.99,,2013-01-17 08:32:00,
2013-01-17 01:42:00,29.0,16.0,-100.00,NW,325,4.0,7.0,57,0.00,,,-99.99,,2013-01-17 08:42:00,
2013-01-17 01:52:00,28.0,16.0,-100.00,NNW,330,3.0,6.0,60,0.00,,,-99.99,,2013-01-17 08:52:00,
2013-01-17 02:02:00,28.0,16.0,-100.00,NNW,329,2.0,4.0,60,0.00,,,-99.99,,2013-01-17 09:02:00,
2013-01-17 02:11:00,28.0,16.0,-100.00,NW,320,3.0,5.0,62,0.00,,,-99.99,,2013-01-17 09:11:00,
2013-01-17 02:22:00,29.0,16.0,-100.00,NW,306,6.0,6.0,58,0.00,,,-99.99,,2013-01-17 09:22:00,
2013-01-17 02:32:00,29.0,17.0,-100.00,WNW,295,5.0,6.0,59,0.00,,,-99.99,,2013-01-17 09:32:00,
2013-01-17 02:42:00,29.0,17.0,-100.00,WNW,289,6.0,7.0,59,0.00,,,-99.99,,2013-01-17 09:42:00,
2013-01-17 02:52:00,31.0,17.0,-100.00,West,281,6.0,7.0,57,0.00,,,-99.99,,2013-01-17 09:52:00,
2013-01-17 03:02:00,30.0,17.0,-100.00,West,272,6.0,7.0,58,0.00,,,-99.99,,2013-01-17 10:02:00,
2013-01-17 03:11:00,29.0,17.0,-100.00,West,280,6.0,7.0,58,0.00,,,-99.99,,2013-01-17 10:11:00,
2013-01-17 03:22:00,30.0,17.0,-100.00,WNW,284,5.0,6.0,58,0.00,,,-99.99,,2013-01-17 10:22:00,
2013-01-17 03:32:00,27.0,16.0,-100.00,WNW,298,4.0,7.0,61,0.00,,,-99.99,,2013-01-17 10:32:00,
2013-01-17 03:42:00,25.0,15.0,-100.00,NW,312,4.0,7.0,67,0.00,,,-99.99,,2013-01-17 10:42:00,
2013-01-17 03:52:00,26.0,16.0,-100.00,NNW,328,1.0,3.0,65,0.00,,,-99.99,,2013-01-17 10:52:00,
2013-01-17 04:02:00,28.0,17.0,-100.00,NW,318,3.0,6.0,62,0.00,,,-99.99,,2013-01-17 11:02:00,
2013-01-17 04:11:00,29.0,17.0,-100.00,NW,308,6.0,7.0,60,0.00,,,-99.99,,2013-01-17 11:11:00,
2013-01-17 04:22:00,31.0,17.0,-100.00,WNW,284,6.0,6.0,57,0.00,,,-99.99,,2013-01-17 11:22:00,
2013-01-17 04:32:00,27.0,15.0,-100.00,WNW,291,4.0,6.0,60,0.00,,,-99.99,,2013-01-17 11:32:00,
2013-01-17 04:42:00,26.0,15.0,-100.00,NW,305,4.0,6.0,64,0.00,,,-99.99,,2013-01-17 11:42:00,
2013-01-17 04:52:00,27.0,16.0,-100.00,NW,309,6.0,7.0,64,0.00,,,-99.99,,2013-01-17 11:52:00,
2013-01-17 05:02:00,29.0,17.0,-100.00,WNW,285,5.0,7.0,60,0.00,,,-99.99,,2013-01-17 12:02:00,
2013-01-17 05:11:00,31.0,17.0,-100.00,West,278,6.0,7.0,56,0.00,,,-99.99,,2013-01-17 12:11:00,
2013-01-17 05:22:00,26.0,15.0,-100.00,WNW,289,4.0,6.0,61,0.00,,,-99.99,,2013-01-17 12:22:00,
2013-01-17 05:32:00,26.0,16.0,-100.00,NNW,342,2.0,4.0,67,0.00,,,-99.99,,2013-01-17 12:32:00,
2013-01-17 05:42:00,28.0,17.0,-100.00,North,359,2.0,4.0,62,0.00,,,-99.99,,2013-01-17 12:42:00,
2013-01-17 05:52:00,29.0,17.0,-100.00,North,349,2.0,3.0,59,0.00,,,-99.99,,2013-01-17 12:52:00,
2013-01-17 06:02:00,29.0,16.0,-100.00,NNW,342,2.0,4.0,58,0.00,,,-99.99,,2013-01-17 13:02:00,
2013-01-17 06:12:00,29.0,17.0,-100.00,NNW,340,2.0,4.0,58,0.00,,,-99.99,,2013-01-17 13:12:00,
2013-01-17 06:22:00,30.0,17.0,-100.00,NNW,333,1.0,3.0,56,0.00,,,-99.99,,2013-01-17 13:22:00,
2013-01-17 06:32:00,31.0,17.0,-100.00,NW,320,1.0,3.0,54,0.00,,,-99.99,,2013-01-17 13:32:00,
2013-01-17 06:42:00,30.0,16.0,-100.00,NW,311,2.0,4.0,56,0.00,,,-99.99,,2013-01-17 13:42:00,
2013-01-17 06:52:00,30.0,17.0,-100.00,NW,319,2.0,4.0,56,0.00,,,-99.99,,2013-01-17 13:52:00,
2013-01-17 07:02:00,30.0,16.0,-100.00,NNW,328,2.0,4.0,55,0.00,,,-99.99,,2013-01-17 14:02:00,
2013-01-17 07:12:00,29.0,16.0,-100.00,NNW,329,1.0,3.0,57,0.00,,,-99.99,,2013-01-17 14:12:00,
2013-01-17 07:22:00,27.0,16.0,-100.00,ENE,73,1.0,3.0,63,0.00,,,-99.99,,2013-01-17 14:22:00,
2013-01-17 07:32:00,30.0,17.0,-100.00,SE,138,4.0,6.0,58,0.00,,,-99.99,,2013-01-17 14:32:00,
2013-01-17 07:42:00,29.0,16.0,-100.00,SE,127,4.0,6.0,59,0.00,,,-99.99,,2013-01-17 14:42:00,
2013-01-17 07:52:00,28.0,16.0,-100.00,SE,133,4.0,5.0,60,0.00,,,-99.99,,2013-01-17 14:52:00,
2013-01-17 08:02:00,29.0,17.0,-100.00,SSE,158,6.0,6.0,59,0.00,,,-99.99,,2013-01-17 15:02:00,
2013-01-17 08:11:00,31.0,17.0,-100.00,South,169,6.0,6.0,57,0.00,,,-99.99,,2013-01-17 15:11:00,
2013-01-17 08:22:00,31.0,17.0,-100.00,SSE,151,6.0,8.0,55,0.00,,,-99.99,,2013-01-17 15:22:00,
2013-01-17 08:32:00,29.0,16.0,-100.00,SSE,161,9.0,9.0,59,0.00,,,-99.99,,2013-01-17 15:32:00,
2013-01-17 08:42:00,30.0,17.0,-100.00,SSE,160,7.0,9.0,57,0.00,,,-99.99,,2013-01-17 15:42:00,
2013-01-17 08:52:00,31.0,17.0,-100.00,SSE,161,7.0,9.0,56,0.00,,,-99.99,,2013-01-17 15:52:00,
2013-01-17 09:02:00,31.0,17.0,-100.00,SSE,158,6.0,7.0,56,0.00,,,-99.99,,2013-01-17 16:02:00,
2013-01-17 09:12:00,33.0,17.0,-100.00,SSE,161,6.0,8.0,53,0.00,,,-99.99,,2013-01-17 16:12:00,
2013-01-17 09:22:00,32.0,18.0,-100.00,SSE,164,6.0,8.0,55,0.00,,,-99.99,,2013-01-17 16:22:00,
2013-01-17 09:32:00,34.0,17.0,-100.00,SSE,161,7.0,9.0,50,0.00,,,-99.99,,2013-01-17 16:32:00,
2013-01-17 09:42:00,34.0,17.0,-100.00,SSE,158,7.0,9.0,49,0.00,,,-99.99,,2013-01-17 16:42:00,
2013-01-17 09:52:00,35.0,18.0,-100.00,SSE,158,7.0,9.0,50,0.00,,,-99.99,,2013-01-17 16:52:00,
2013-01-17 10:02:00,36.0,18.0,-100.00,SSE,154,7.0,10.0,47,0.00,,,-99.99,,2013-01-17 17:02:00,
2013-01-17 10:12:00,35.0,18.0,-100.00,SSE,158,7.0,10.0,50,0.00,,,-99.99,,2013-01-17 17:12:00,
2013-01-17 10:22:00,37.0,20.0,-100.00,SSE,152,7.0,10.0,49,0.00,,,-99.99,,2013-01-17 17:22:00,
2013-01-17 10:32:00,38.0,18.0,-100.00,SSE,165,5.0,7.0,44,0.00,,,-99.99,,2013-01-17 17:32:00,
2013-01-17 10:42:00,39.0,18.0,-100.00,SSE,161,4.0,6.0,43,0.00,,,-99.99,,2013-01-17 17:42:00,
2013-01-17 10:53:00,40.0,19.0,-100.00,SSE,162,3.0,5.0,43,0.00,,,-99.99,,2013-01-17 17:53:00,
2013-01-17 11:02:00,45.0,21.0,-100.00,SE,145,2.0,4.0,40,0.00,,,-99.99,,2013-01-17 18:02:00,
2013-01-17 11:12:00,46.0,21.0,-100.00,SE,138,1.0,4.0,36,0.00,,,-99.99,,2013-01-17 18:12:00,
2013-01-17 11:22:00,45.0,22.0,-100.00,East,99,1.0,2.0,40,0.00,,,-99.99,,2013-01-17 18:22:00,
2013-01-17 11:33:00,42.0,22.0,-100.00,NE,34,0.0,2.0,43,0.00,,,-99.99,,2013-01-17 18:33:00,
2013-01-17 11:43:00,41.0,19.0,-100.00,SW,216,1.0,4.0,41,0.00,,,-99.99,,2013-01-17 18:43:00,
2013-01-17 11:52:00,41.0,20.0,-100.00,SSE,167,3.0,4.0,43,0.00,,,-99.99,,2013-01-17 18:52:00,
2013-01-17 12:02:00,41.0,22.0,-100.00,SSE,160,4.0,6.0,46,0.00,,,-99.99,,2013-01-17 19:02:00,
2013-01-17 12:12:00,40.0,22.0,-100.00,SSE,164,6.0,7.0,48,0.00,,,-99.99,,2013-01-17 19:12:00,
2013-01-17 12:22:00,39.0,24.0,-100.00,SE,144,6.0,7.0,53,0.00,,,-99.99,,2013-01-17 19:22:00,
2013-01-17 12:32:00,40.0,22.0,-100.00,SE,144,6.0,7.0,49,0.00,,,-99.99,,2013-01-17 19:32:00,
2013-01-17 12:52:00,41.0,22.0,-100.00,SE,137,5.0,6.0,47,0.00,,,-99.99,,2013-01-17 19:52:00,
2013-01-17 13:02:00,42.0,21.0,-100.00,SE,143,4.0,6.0,43,0.00,,,-99.99,,2013-01-17 20:02:00,
2013-01-17 13:12:00,43.0,23.0,-100.00,SE,134,4.0,5.0,45,0.00,,,-99.99,,2013-01-17 20:12:00,
2013-01-17 13:22:00,42.0,23.0,-100.00,SE,141,4.0,6.0,46,0.00,,,-99.99,,2013-01-17 20:22:00,
2013-01-17 13:32:00,42.0,21.0,-100.00,South,174,4.0,5.0,43,0.00,,,-99.99,,2013-01-17 20:32:00,
2013-01-17 13:42:00,42.0,22.0,-100.00,SSE,164,4.0,7.0,45,0.00,,,-99.99,,2013-01-17 20:42:00,
2013-01-17 13:53:00,41.0,23.0,-100.00,SE,143,6.0,7.0,48,0.00,,,-99.99,,2013-01-17 20:53:00,
2013-01-17 14:02:00,42.0,23.0,-100.00,SE,136,4.0,6.0,47,0.00,,,-99.99,,2013-01-17 21:02:00,
2013-01-17 14:12:00,42.0,23.0,-100.00,SE,133,5.0,6.0,46,0.00,,,-99.99,,2013-01-17 21:12:00,
2013-01-17 14:22:00,42.0,24.0,-100.00,ESE,117,4.0,6.0,48,0.00,,,-99.99,,2013-01-17 21:22:00,
2013-01-17 14:33:00,42.0,24.0,-100.00,ESE,119,5.0,6.0,47,0.00,,,-99.99,,2013-01-17 21:33:00,
2013-01-17 14:42:00,44.0,24.0,-100.00,ESE,121,3.0,6.0,44,0.00,,,-99.99,,2013-01-17 21:42:00,
2013-01-17 14:52:00,43.0,25.0,-100.00,SE,136,4.0,6.0,49,0.00,,,-99.99,,2013-01-17 21:52:00,
2013-01-17 15:02:00,43.0,24.0,-100.00,SE,137,4.0,4.0,46,0.00,,,-99.99,,2013-01-17 22:02:00,
2013-01-17 15:11:00,43.0,25.0,-100.00,SE,137,4.0,5.0,49,0.00,,,-99.99,,2013-01-17 22:11:00,
2013-01-17 15:22:00,43.0,24.0,-100.00,SE,145,6.0,7.0,48,0.00,,,-99.99,,2013-01-17 22:22:00,
2013-01-17 15:32:00,43.0,25.0,-100.00,SSE,158,6.0,7.0,49,0.00,,,-99.99,,2013-01-17 22:32:00,
2013-01-17 15:42:00,43.0,24.0,-100.00,SSE,155,5.0,6.0,47,0.00,,,-99.99,,2013-01-17 22:42:00,
2013-01-17 15:52:00,43.0,24.0,-100.00,SE,131,2.0,4.0,47,0.00,,,-99.99,,2013-01-17 22:52:00,
2013-01-17 16:02:00,44.0,24.0,-100.00,SE,133,1.0,2.0,45,0.00,,,-99.99,,2013-01-17 23:02:00,
2013-01-17 16:11:00,43.0,24.0,-100.00,East,96,1.0,2.0,48,0.00,,,-99.99,,2013-01-17 23:11:00,
2013-01-17 16:22:00,44.0,22.0,-100.00,SSE,152,3.0,5.0,43,0.00,,,-99.99,,2013-01-17 23:22:00,
2013-01-17 16:32:00,40.0,25.0,-100.00,ESE,117,2.0,4.0,52,0.00,,,-99.99,,2013-01-17 23:32:00,
2013-01-17 16:42:00,41.0,24.0,-100.00,NNW,347,0.0,1.0,50,0.00,,,-99.99,,2013-01-17 23:42:00,
2013-01-17 16:52:00,39.0,23.0,-100.00,North,350,2.0,4.0,51,0.00,,,-99.99,,2013-01-17 23:52:00,
2013-01-17 17:02:00,40.0,22.0,-100.00,North,1,1.0,6.0,48,0.00,,,-99.99,,2013-01-18 00:02:00,
2013-01-17 17:11:00,40.0,22.0,-100.00,NNW,340,1.0,3.0,49,0.00,,,-99.99,,2013-01-18 00:11:00,
2013-01-17 17:22:00,41.0,21.0,-100.00,NNW,342,1.0,3.0,45,0.00,,,-99.99,,2013-01-18 00:22:00,
2013-01-17 17:32:00,40.0,20.0,-100.00,North,357,1.0,4.0,44,0.00,,,-99.99,,2013-01-18 00:32:00,
2013-01-17 17:42:00,37.0,21.0,-100.00,NNW,337,3.0,6.0,51,0.00,,,-99.99,,2013-01-18 00:42:00,
2013-01-17 17:52:00,36.0,20.0,-100.00,NW,323,2.0,6.0,52,0.00,,,-99.99,,2013-01-18 00:52:00,
2013-01-17 18:02:00,39.0,20.0,-100.00,West,267,2.0,5.0,46,0.00,,,-99.99,,2013-01-18 01:02:00,
2013-01-17 18:11:00,39.0,20.0,-100.00,West,275,1.0,4.0,46,0.00,,,-99.99,,2013-01-18 01:11:00,
2013-01-17 18:22:00,41.0,19.0,-100.00,SW,219,1.0,4.0,41,0.00,,,-99.99,,2013-01-18 01:22:00,
2013-01-17 18:32:00,39.0,17.0,-100.00,SW,222,1.0,2.0,40,0.00,,,-99.99,,2013-01-18 01:32:00,
2013-01-17 18:42:00,40.0,18.0,-100.00,SSW,210,1.0,3.0,40,0.00,,,-99.99,,2013-01-18 01:42:00,
2013-01-17 18:52:00,36.0,18.0,-100.00,West,275,1.0,4.0,47,0.00,,,-99.99,,2013-01-18 01:52:00,
2013-01-17 19:02:00,36.0,17.0,-100.00,North,7,1.0,4.0,47,0.00,,,-99.99,,2013-01-18 02:02:00,
2013-01-17 19:11:00,35.0,17.0,-100.00,NNW,344,2.0,4.0,49,0.00,,,-99.99,,2013-01-18 02:11:00,
2013-01-17 19:22:00,37.0,17.0,-100.00,WNW,295,2.0,6.0,44,0.00,,,-99.99,,2013-01-18 02:22:00,
2013-01-17 19:32:00,39.0,16.0,-100.00,West,277,2.0,4.0,39,0.00,,,-99.99,,2013-01-18 02:32:00,
2013-01-17 19:42:00,37.0,17.0,-100.00,West,275,3.0,6.0,43,0.00,,,-99.99,,2013-01-18 02:42:00,
2013-01-17 19:52:00,39.0,17.0,-100.00,WSW,258,4.0,9.0,40,0.00,,,-99.99,,2013-01-18 02:52:00,
2013-01-17 20:02:00,40.0,17.0,-100.00,SW,227,6.0,11.0,38,0.00,,,-99.99,,2013-01-18 03:02:00,
2013-01-17 20:12:00,33.0,18.0,-100.00,NW,316,2.0,6.0,54,0.00,,,-99.99,,2013-01-18 03:12:00,
2013-01-17 20:22:00,35.0,17.0,-100.00,WNW,282,2.0,6.0,48,0.00,,,-99.99,,2013-01-18 03:22:00,
2013-01-17 20:32:00,36.0,17.0,-100.00,WNW,282,4.0,6.0,47,0.00,,,-99.99,,2013-01-18 03:32:00,
2013-01-17 20:42:00,39.0,16.0,-100.00,WSW,250,3.0,6.0,39,0.00,,,-99.99,,2013-01-18 03:42:00,
2013-01-17 20:52:00,41.0,17.0,-100.00,SSW,206,4.0,6.0,37,0.00,,,-99.99,,2013-01-18 03:52:00,
2013-01-17 21:01:00,42.0,12.0,-100.00,SSE,164,4.0,7.0,31,0.00,,,-99.99,,2013-01-18 04:01:00,
2013-01-17 21:11:00,41.0,17.0,-100.00,SSE,161,5.0,9.0,38,0.00,,,-99.99,,2013-01-18 04:11:00,
2013-01-17 21:22:00,39.0,18.0,-100.00,SSE,162,2.0,6.0,41,0.00,,,-99.99,,2013-01-18 04:22:00,
2013-01-17 21:32:00,40.0,18.0,-100.00,East,80,2.0,4.0,41,0.00,,,-99.99,,2013-01-18 04:32:00,
2013-01-17 21:42:00,40.0,17.0,-100.00,SSE,147,4.0,7.0,39,0.00,,,-99.99,,2013-01-18 04:42:00,
2013-01-17 21:52:00,38.0,18.0,-100.00,SE,136,4.0,6.0,45,0.00,,,-99.99,,2013-01-18 04:52:00,
2013-01-17 22:02:00,39.0,19.0,-100.00,SE,140,5.0,7.0,44,0.00,,,-99.99,,2013-01-18 05:02:00,
2013-01-17 22:11:00,39.0,19.0,-100.00,SSE,157,6.0,7.0,44,0.00,,,-99.99,,2013-01-18 05:11:00,
2013-01-17 22:22:00,36.0,19.0,-100.00,ESE,123,2.0,4.0,48,0.00,,,-99.99,,2013-01-18 05:22:00,
2013-01-17 22:32:00,35.0,19.0,-100.00,NE,40,1.0,3.0,52,0.00,,,-99.99,,2013-01-18 05:32:00,
2013-01-17 22:42:00,36.0,19.0,-100.00,SSW,209,1.0,3.0,49,0.00,,,-99.99,,2013-01-18 05:42:00,
2013-01-17 22:52:00,37.0,17.0,-100.00,SE,143,1.0,3.0,45,0.00,,,-99.99,,2013-01-18 05:52:00,
2013-01-17 23:02:00,32.0,18.0,-100.00,North,360,1.0,4.0,57,0.00,,,-99.99,,2013-01-18 06:02:00,
2013-01-17 23:12:00,33.0,18.0,-100.00,NW,325,2.0,6.0,56,0.00,,,-99.99,,2013-01-18 06:12:00,
2013-01-17 23:22:00,38.0,17.0,-100.00,SW,223,1.0,4.0,42,0.00,,,-99.99,,2013-01-18 06:22:00,
2013-01-17 23:32:00,40.0,15.0,-100.00,South,184,1.0,3.0,36,0.00,,,-99.99,,2013-01-18 06:32:00,
2013-01-17 23:42:00,35.0,18.0,-100.00,NW,326,2.0,6.0,50,0.00,,,-99.99,,2013-01-18 06:42:00,
2013-01-17 23:52:00,34.0,18.0,-100.00,North,354,1.0,4.0,50,-99.99,,,-99.99,,2013-01-18 06:52:00,